Wind_Speed
31 31 31 31 31 29 25 25 26 24 23 24 21 17 18 23 26 26 23 22 21 21 21 21 21 21 21 22 22 23 23 23 23 22 21 20 19 18 17 17 16 17 17 17 17 17 17 17 17
32 32 33 33 32 29 25 26 28 27 27 24 21 21 21 26 26 22 23 22 22 22 22 22 23 23 22 23 23 23 24 24 24 23 22 21 20 19 19 18 18 18 18 18 18 19 19 19 19
33 33 33 32 30 26 24 26 30 29 27 25 25 24 25 30 25 21 23 23 22 22 22 23 23 23 23 23 23 23 24 24 24 24 23 22 21 21 20 19 19 19 19 19 20 20 20 20 20
33 33 33 31 26 22 24 28 30 27 26 27 27 26 29 30 24 22 24 24 23 23 23 23 23 24 24 24 24 24 24 24 24 25 24 23 22 21 21 20 20 20 20 20 20 21 21 21 21
34 34 34 30 23 22 25 28 29 24 25 26 26 27 32 29 27 26 26 25 25 24 24 24 25 25 25 26 26 26 26 25 25 25 24 24 23 23 22 21 21 21 21 21 21 21 21 21 21
36 35 34 29 22 24 26 29 29 25 26 26 25 27 33 29 29 28 27 27 27 26 25 26 26 26 26 26 26 27 27 26 26 25 25 25 24 24 23 22 22 21 21 21 20 20 20 21 21
36 36 35 30 26 27 27 30 31 27 27 26 27 27 32 30 28 29 29 29 29 27 26 28 28 28 27 27 27 26 26 26 26 26 26 25 25 24 24 23 22 22 21 21 20 20 21 21 21
37 38 36 32 28 27 28 33 34 29 28 29 29 26 33 31 27 28 29 30 30 30 28 29 29 29 28 28 27 27 26 26 26 26 26 25 25 25 24 24 23 23 22 21 21 21 21 21 22
39 40 37 31 29 29 32 37 37 30 30 31 29 28 32 31 26 27 29 30 31 31 31 30 30 30 29 29 29 28 27 26 26 26 26 25 25 25 25 25 25 24 23 23 23 22 22 23 23
41 41 36 31 32 34 36 40 36 31 32 31 31 30 31 31 28 28 29 30 31 32 32 31 31 31 30 30 29 29 28 27 26 26 26 25 25 25 26 26 26 26 26 25 25 25 25 25 26
42 40 36 34 36 37 37 37 35 34 33 31 32 32 32 32 30 29 30 30 31 32 33 32 32 32 32 31 31 30 29 28 27 27 27 26 26 25 25 26 26 27 27 28 28 27 28 28 28
42 41 38 37 38 36 35 36 36 35 33 33 34 34 31 28 28 29 30 31 31 31 32 33 33 33 33 33 32 32 31 30 30 29 28 28 27 26 26 26 26 27 28 29 30 30 30 31 31
43 41 39 38 38 35 35 36 36 35 33 33 33 32 29 26 28 30 31 31 32 32 31 33 34 34 34 34 33 33 32 32 31 30 30 29 29 28 27 27 27 28 29 30 31 31 32 32 32
43 41 40 38 37 36 36 36 35 32 33 33 33 31 29 27 28 30 31 31 32 33 33 33 35 36 36 35 35 34 34 33 32 32 32 32 31 31 30 29 28 29 29 31 32 33 33 33 34
42 40 39 38 37 37 37 36 34 32 34 33 32 31 29 28 29 30 31 31 32 33 35 35 35 37 37 36 36 36 35 35 34 34 33 33 33 33 32 31 31 31 31 32 33 34 34 34 35
42 41 40 38 38 38 38 35 34 34 34 33 32 32 31 29 30 30 31 32 32 34 36 37 37 37 38 38 37 37 37 36 36 35 35 35 35 35 34 33 33 33 33 34 35 35 36 36 36
42 41 40 39 39 38 38 35 34 35 34 33 33 33 32 31 31 31 32 33 33 35 37 38 38 38 39 39 39 38 38 37 37 36 35 35 36 36 36 36 35 35 36 36 36 37 37 37 37
41 41 40 39 39 38 38 37 35 35 35 34 34 35 35 35 34 34 34 35 36 37 39 40 40 40 40 41 40 39 39 39 38 36 36 36 36 37 37 37 37 38 38 39 38 38 38 38 39
39 38 37 38 39 39 38 37 35 35 35 35 36 37 38 38 38 38 39 39 39 40 41 42 42 41 42 43 42 40 40 40 39 38 37 37 37 38 38 38 39 39 39 39 39 39 39 40 40
36 35 35 36 37 38 38 37 36 36 37 37 38 39 40 41 42 42 42 43 43 43 44 44 45 44 44 45 44 43 42 41 39 39 38 38 38 39 39 40 40 40 40 39 40 40 41 41 42
32 33 33 33 34 35 37 38 37 37 38 39 40 42 44 45 46 46 46 47 47 47 47 47 47 48 47 47 47 46 44 42 40 40 39 39 39 39 40 40 40 41 40 40 41 41 42 42 43
30 29 29 30 32 33 36 39 37 38 40 43 44 45 47 49 50 50 51 51 51 50 51 50 50 50 51 50 49 47 46 44 42 41 40 40 39 39 39 40 41 41 41 41 41 42 41 42 43
27 26 27 29 32 34 35 40 39 41 43 46 48 49 50 51 53 54 55 55 55 54 54 53 53 52 53 53 50 48 48 46 44 43 41 40 40 40 40 40 41 41 41 42 42 41 42 43 44
25 26 28 30 33 35 36 40 40 43 46 48 50 52 53 53 54 54 55 56 56 57 57 56 55 54 53 53 51 50 49 48 46 44 42 41 41 40 40 40 40 41 41 41 42 42 43 44 46
25 26 29 32 34 36 39 42 40 42 45 48 49 51 53 54 54 54 54 54 55 56 57 57 56 55 54 52 51 51 50 49 47 46 44 42 41 40 40 40 40 40 40 41 41 42 44 46 47
26 27 30 33 35 37 40 42 40 41 44 46 48 49 50 51 52 52 52 53 54 55 56 57 56 55 54 52 51 51 50 49 48 46 44 43 42 41 40 40 39 39 39 40 41 43 45 47 48
26 28 30 33 36 38 39 39 38 40 43 45 47 50 51 52 52 52 52 52 51 52 54 55 55 54 53 52 51 50 49 49 48 46 44 43 42 41 40 39 39 39 40 41 42 44 46 48 49
27 28 30 32 35 37 36 36 37 39 42 44 47 50 52 53 52 52 51 51 50 50 51 53 53 53 52 52 51 49 48 48 47 45 44 43 41 40 39 39 39 39 40 42 43 45 47 48 49
27 28 29 31 33 35 36 35 36 38 40 43 47 49 51 52 51 50 50 49 48 48 49 50 51 51 51 50 49 48 47 46 45 44 43 42 40 39 39 39 39 40 41 43 45 46 48 49 50
26 26 27 29 31 33 36 34 33 36 39 42 45 47 48 48 48 47 46 45 44 44 44 45 47 49 49 48 46 46 45 44 43 43 42 41 40 39 38 39 39 41 42 44 46 47 48 50 52
Wind_Direction
239 239 239 239 240 239 239 241 242 242 241 241 246 248 247 246 245 248 256 255 254 254 253 253 254 255 255 255 255 255 256 257 258 259 262 263 264 263 262 259 258 258 257 257 258 260 262 264 266
238 238 239 239 239 239 237 241 244 242 243 245 245 242 240 247 250 253 255 255 255 256 257 257 257 258 258 257 256 255 255 255 255 256 257 259 260 261 261 259 259 260 260 261 262 264 266 267 269
237 237 238 238 238 239 237 239 243 243 244 244 244 243 241 245 251 251 254 255 256 258 259 259 258 258 258 259 258 257 256 255 255 254 255 256 257 258 258 258 258 260 262 264 266 268 269 271 274
235 236 237 237 236 234 235 240 245 246 244 244 246 246 246 252 253 250 252 253 255 257 259 259 259 259 259 259 260 259 258 257 256 255 255 255 256 256 256 256 257 259 261 264 266 268 270 272 274
234 236 237 237 233 232 234 241 248 247 245 245 245 247 251 251 252 250 252 253 255 256 258 259 260 260 259 259 260 262 261 259 258 257 256 256 256 256 256 255 255 257 259 262 264 266 268 271 272
234 237 240 238 232 232 237 243 247 246 247 247 246 247 254 252 251 251 252 253 254 255 257 259 260 262 262 262 263 263 263 263 262 260 259 257 258 258 257 256 255 256 258 261 263 265 267 269 271
236 239 241 239 232 232 238 245 248 245 247 249 247 246 255 253 251 252 252 253 255 255 256 259 261 264 265 266 266 267 268 267 266 264 262 261 261 261 260 259 258 258 260 261 262 264 267 269 271
237 240 241 239 236 234 238 245 248 245 246 248 249 247 253 257 252 253 254 255 257 257 257 260 262 265 267 269 270 271 272 271 269 268 266 265 264 263 263 262 261 261 262 262 262 264 267 269 271
237 240 240 240 239 237 237 243 247 245 245 247 250 248 254 261 258 256 255 256 257 258 259 260 263 266 268 270 272 273 273 273 272 270 269 269 267 266 265 265 264 263 263 263 263 265 267 269 271
237 240 242 241 239 236 234 239 246 246 245 248 251 251 253 258 257 254 255 257 257 259 260 261 262 265 267 270 271 273 273 273 272 272 271 270 269 268 268 267 266 264 263 263 263 264 266 269 272
236 239 240 238 237 237 237 241 247 248 248 249 252 253 253 255 257 257 257 258 259 259 261 262 262 263 266 268 269 271 273 273 272 272 272 271 270 269 269 268 267 265 263 262 263 264 266 268 271
235 236 237 236 237 238 239 242 244 247 249 249 251 254 256 257 259 258 258 258 259 259 261 262 262 263 264 266 268 269 271 271 271 272 272 272 271 271 271 271 270 267 265 263 263 264 265 268 271
233 234 235 235 237 238 239 241 244 246 249 251 254 257 259 257 255 256 257 257 259 260 260 261 263 263 263 265 266 267 269 269 270 271 272 272 272 273 274 273 272 269 267 266 265 265 266 268 271
232 233 234 235 236 237 238 239 243 245 248 250 253 256 258 257 256 257 258 259 260 262 261 259 261 263 263 264 265 265 266 267 269 270 271 272 273 274 275 275 275 273 270 269 268 268 268 270 272
232 233 233 234 235 236 238 239 243 243 245 249 253 257 258 257 257 258 260 260 260 260 261 260 260 261 263 264 264 264 265 266 267 269 271 272 272 273 274 276 276 275 273 271 271 271 271 272 273
231 232 232 233 233 234 237 238 240 242 244 248 252 256 258 258 258 259 260 261 260 260 261 261 260 261 262 263 263 264 264 265 266 268 269 270 272 273 275 276 277 276 274 274 273 273 273 273 275
231 232 232 232 232 234 236 237 237 241 244 248 252 255 258 259 260 261 262 262 261 260 261 261 261 260 261 262 263 263 264 264 265 267 268 270 271 273 275 276 277 277 276 275 275 274 274 275 276
231 231 231 232 233 233 236 237 237 242 246 249 253 256 259 261 262 263 263 263 262 261 260 260 261 260 260 261 263 263 264 264 265 266 267 269 271 273 275 277 278 278 277 276 276 275 274 275 276
230 231 232 233 234 234 236 238 240 243 248 251 254 257 260 262 263 264 264 263 262 262 261 260 260 259 259 260 261 263 263 264 264 265 267 268 270 273 275 277 279 279 278 278 277 276 277 277 278
229 230 232 233 236 237 237 239 243 247 251 254 257 259 261 263 264 265 265 264 264 262 261 259 258 257 257 258 258 259 260 262 264 264 266 268 270 272 274 277 278 278 278 279 278 277 278 279 279
228 230 233 236 239 242 243 241 246 251 256 259 262 263 264 264 265 265 265 265 264 263 261 259 257 256 255 254 255 256 258 261 263 264 265 267 270 272 274 277 278 278 278 279 280 279 279 280 280
228 231 236 240 243 246 250 251 247 257 262 263 264 265 266 266 266 266 265 264 264 263 261 259 256 254 253 252 253 254 256 258 260 262 264 266 269 272 274 277 278 279 279 280 281 281 281 282 282
231 235 243 248 252 254 258 263 258 264 267 269 269 269 269 268 267 266 265 264 262 261 260 258 256 253 252 251 251 251 252 254 257 260 263 265 268 270 274 276 278 278 279 280 282 283 284 285 285
237 244 252 257 260 263 266 270 268 273 276 276 275 274 273 271 269 268 266 264 262 260 258 257 255 253 251 250 248 248 249 252 254 257 260 263 266 269 272 275 277 278 279 282 283 285 286 287 288
246 254 261 265 267 270 273 275 276 278 280 280 280 279 279 277 275 272 268 265 261 258 256 254 253 251 250 249 246 246 247 249 251 255 258 261 265 268 271 274 277 279 281 283 285 287 288 289 290
253 260 267 271 274 275 277 281 282 283 283 282 282 281 281 281 279 277 273 267 262 257 255 252 250 249 247 246 245 244 244 246 249 253 256 260 263 267 271 274 276 279 282 285 286 288 290 291 292
258 264 270 275 278 280 282 285 286 287 287 288 287 286 285 283 281 279 275 270 262 256 252 250 248 246 244 242 242 241 241 243 247 250 254 257 261 265 270 274 277 280 283 285 287 289 290 292 293
260 267 273 277 281 284 286 289 293 295 297 295 293 292 290 288 285 281 277 271 262 255 250 246 244 242 240 239 238 238 238 240 244 248 252 256 260 264 268 273 277 281 284 286 288 290 291 293 293
263 269 273 277 281 287 290 294 302 302 299 297 296 295 292 290 287 283 277 271 261 253 248 243 240 237 235 235 235 235 235 238 242 246 251 255 259 263 268 273 278 282 285 287 289 291 292 293 294
264 269 274 280 285 289 294 301 306 303 301 301 299 297 295 292 288 283 276 268 258 249 242 237 234 231 229 229 231 232 233 236 240 245 250 254 258 263 269 274 278 283 286 288 290 292 293 294 295
Height
5807 5809 5811 5814 5817 5820 5823 5825 5826 5828 5830 5831 5835 5838 5839 5838 5838 5842 5842 5843 5845 5846 5847 5848 5849 5849 5850 5851 5852 5853 5853 5854 5855 5856 5856 5856 5857 5857 5857 5857 5857 5857 5857 5858 5858 5858 5858 5858 5858
5802 5804 5806 5809 5811 5815 5820 5820 5821 5823 5825 5829 5832 5833 5835 5834 5835 5838 5838 5840 5841 5843 5844 5845 5846 5847 5847 5848 5849 5849 5850 5851 5852 5852 5853 5853 5853 5853 5853 5854 5854 5854 5854 5854 5855 5855 5855 5855 5855
5796 5798 5801 5804 5807 5812 5815 5814 5815 5817 5821 5824 5826 5829 5830 5828 5832 5835 5835 5836 5838 5839 5841 5842 5843 5843 5844 5844 5845 5846 5846 5847 5848 5849 5849 5850 5850 5850 5850 5850 5850 5850 5851 5851 5851 5851 5852 5852 5852
5790 5793 5796 5800 5804 5808 5809 5808 5810 5813 5817 5819 5821 5824 5824 5825 5830 5832 5831 5832 5834 5836 5837 5838 5839 5840 5840 5841 5841 5842 5843 5843 5844 5845 5845 5846 5846 5846 5846 5846 5846 5847 5847 5847 5848 5848 5848 5848 5848
5784 5787 5791 5794 5801 5803 5804 5804 5805 5809 5811 5814 5817 5818 5817 5822 5824 5827 5827 5828 5830 5832 5833 5834 5834 5835 5836 5837 5837 5838 5839 5839 5840 5840 5841 5841 5842 5842 5842 5843 5843 5843 5844 5844 5844 5844 5844 5844 5844
5779 5782 5786 5791 5797 5799 5799 5800 5801 5804 5806 5809 5812 5813 5811 5817 5819 5822 5823 5824 5825 5828 5829 5829 5830 5831 5832 5832 5833 5834 5834 5835 5836 5836 5837 5837 5837 5838 5838 5839 5839 5839 5840 5840 5840 5840 5840 5840 5840
5774 5777 5780 5786 5791 5793 5795 5795 5795 5799 5802 5804 5806 5809 5806 5810 5814 5816 5818 5819 5820 5823 5825 5825 5826 5827 5828 5828 5829 5830 5830 5831 5831 5832 5832 5833 5833 5834 5834 5834 5835 5835 5836 5836 5836 5836 5836 5836 5836
5768 5771 5774 5780 5785 5789 5791 5789 5789 5794 5797 5799 5801 5804 5801 5804 5810 5811 5813 5814 5816 5818 5820 5821 5822 5823 5824 5824 5825 5826 5826 5826 5827 5827 5828 5829 5829 5829 5830 5830 5831 5831 5832 5832 5832 5832 5832 5833 5832
5761 5765 5768 5776 5780 5783 5784 5782 5783 5788 5791 5793 5795 5798 5797 5800 5805 5807 5808 5809 5811 5813 5815 5816 5817 5818 5819 5820 5821 5821 5822 5822 5823 5823 5824 5824 5825 5825 5825 5826 5826 5827 5827 5828 5828 5828 5828 5828 5828
5754 5757 5764 5770 5773 5774 5776 5775 5777 5782 5785 5788 5790 5792 5794 5795 5799 5801 5802 5804 5806 5807 5809 5811 5813 5814 5815 5816 5816 5817 5817 5818 5818 5819 5819 5820 5820 5821 5821 5821 5822 5822 5823 5823 5823 5824 5824 5824 5824
5747 5752 5758 5761 5764 5766 5769 5771 5773 5776 5779 5783 5785 5786 5788 5790 5793 5795 5797 5799 5800 5801 5803 5805 5807 5808 5809 5811 5812 5812 5813 5813 5814 5814 5815 5815 5816 5816 5816 5816 5817 5817 5818 5818 5818 5819 5819 5819 5819
5741 5745 5749 5753 5756 5760 5763 5765 5767 5769 5773 5777 5778 5779 5781 5786 5788 5790 5791 5793 5794 5796 5797 5798 5800 5802 5803 5805 5806 5807 5808 5808 5809 5810 5810 5810 5811 5811 5811 5812 5812 5812 5812 5813 5813 5813 5813 5813 5813
5732 5737 5741 5745 5749 5753 5757 5759 5761 5764 5768 5770 5772 5774 5776 5780 5782 5783 5785 5787 5788 5790 5792 5793 5793 5795 5797 5798 5800 5801 5802 5803 5803 5804 5805 5805 5805 5806 5806 5807 5807 5807 5807 5807 5807 5807 5807 5807 5807
5725 5730 5734 5739 5743 5746 5750 5753 5755 5759 5762 5763 5765 5768 5771 5773 5775 5777 5779 5781 5782 5783 5785 5787 5788 5789 5790 5792 5793 5795 5796 5797 5798 5798 5799 5799 5800 5800 5801 5801 5801 5801 5801 5801 5801 5801 5801 5801 5800
5718 5724 5728 5733 5736 5739 5742 5746 5750 5753 5754 5756 5759 5762 5764 5767 5769 5770 5772 5774 5776 5777 5778 5780 5782 5782 5784 5785 5787 5788 5789 5791 5792 5793 5793 5793 5794 5794 5795 5795 5795 5795 5795 5794 5794 5794 5794 5794 5793
5711 5716 5721 5726 5729 5732 5737 5741 5743 5745 5748 5750 5753 5755 5757 5760 5762 5764 5766 5768 5770 5771 5771 5773 5775 5776 5777 5778 5780 5781 5782 5784 5785 5786 5787 5787 5787 5788 5788 5788 5788 5788 5788 5788 5788 5787 5787 5787 5786
5704 5709 5714 5718 5722 5725 5729 5734 5737 5738 5741 5744 5746 5748 5750 5752 5755 5757 5759 5761 5762 5763 5764 5765 5767 5769 5770 5771 5772 5774 5775 5777 5779 5780 5780 5780 5781 5781 5781 5781 5781 5781 5781 5781 5780 5780 5780 5779 5779
5697 5702 5706 5710 5714 5718 5722 5727 5730 5731 5734 5737 5739 5741 5743 5745 5747 5749 5751 5753 5754 5755 5756 5757 5759 5761 5763 5763 5765 5767 5768 5769 5771 5773 5773 5774 5774 5774 5774 5774 5774 5774 5773 5773 5772 5772 5772 5771 5771
5691 5696 5700 5704 5707 5711 5716 5720 5723 5725 5728 5730 5731 5733 5735 5737 5739 5740 5742 5744 5745 5747 5748 5749 5751 5753 5754 5755 5757 5759 5760 5761 5763 5765 5766 5767 5767 5767 5767 5767 5767 5766 5766 5765 5765 5764 5763 5763 5762
5685 5690 5694 5697 5700 5705 5709 5713 5716 5718 5720 5722 5723 5724 5726 5727 5729 5730 5732 5733 5735 5737 5738 5740 5741 5743 5745 5747 5749 5750 5751 5753 5755 5757 5759 5759 5759 5760 5760 5759 5759 5759 5758 5758 5757 5756 5755 5754 5753
5680 5685 5688 5692 5695 5698 5701 5707 5710 5712 5712 5714 5714 5714 5715 5717 5718 5719 5721 5722 5724 5726 5727 5729 5731 5732 5735 5737 5738 5741 5743 5745 5747 5749 5751 5751 5752 5752 5752 5752 5751 5751 5750 5750 5749 5748 5747 5746 5744
5676 5680 5683 5686 5689 5693 5695 5697 5706 5704 5704 5703 5704 5704 5704 5705 5706 5707 5708 5710 5711 5713 5715 5717 5719 5721 5723 5726 5729 5732 5735 5737 5739 5741 5742 5743 5744 5744 5744 5744 5743 5743 5742 5742 5740 5739 5738 5736 5735
5671 5675 5678 5681 5683 5686 5689 5689 5697 5694 5694 5692 5692 5692 5692 5692 5692 5693 5694 5696 5697 5699 5701 5704 5706 5709 5711 5715 5719 5723 5725 5728 5730 5732 5734 5735 5736 5736 5736 5736 5736 5735 5734 5733 5732 5730 5729 5727 5725
5667 5671 5673 5674 5677 5681 5681 5680 5687 5684 5681 5679 5678 5677 5676 5676 5677 5678 5678 5680 5682 5684 5686 5689 5692 5695 5699 5703 5709 5712 5715 5719 5722 5724 5725 5727 5728 5728 5728 5728 5728 5727 5726 5725 5723 5721 5720 5717 5715
5663 5666 5668 5669 5670 5673 5672 5672 5678 5674 5669 5665 5664 5662 5660 5660 5660 5661 5662 5663 5665 5667 5670 5673 5677 5682 5686 5691 5697 5701 5705 5709 5712 5715 5717 5718 5719 5720 5720 5720 5720 5719 5718 5716 5714 5712 5710 5708 5705
5657 5660 5662 5663 5663 5664 5663 5662 5666 5662 5657 5652 5650 5648 5646 5645 5643 5643 5644 5645 5648 5650 5653 5657 5662 5667 5673 5678 5684 5689 5695 5699 5703 5706 5708 5710 5711 5712 5712 5712 5711 5710 5709 5707 5705 5703 5701 5698 5695
5652 5654 5655 5656 5655 5655 5655 5654 5654 5650 5645 5641 5637 5633 5630 5628 5627 5626 5626 5627 5629 5633 5637 5641 5647 5653 5659 5665 5672 5678 5684 5689 5693 5696 5699 5701 5702 5703 5704 5704 5703 5702 5700 5698 5696 5694 5691 5688 5684
5647 5648 5649 5649 5647 5646 5646 5645 5643 5638 5633 5629 5623 5618 5614 5611 5609 5607 5607 5608 5611 5615 5619 5624 5631 5639 5646 5653 5660 5667 5674 5679 5683 5687 5690 5692 5694 5695 5696 5695 5695 5694 5692 5690 5687 5684 5681 5677 5673
5642 5643 5642 5642 5641 5639 5636 5639 5634 5628 5622 5616 5611 5604 5598 5594 5591 5588 5588 5589 5592 5596 5602 5608 5615 5624 5632 5641 5650 5657 5664 5669 5674 5678 5682 5684 5686 5687 5687 5687 5686 5685 5683 5680 5677 5674 5670 5666 5662
5636 5637 5637 5637 5635 5631 5628 5631 5625 5618 5611 5605 5599 5591 5584 5578 5574 5571 5571 5571 5574 5580 5586 5593 5601 5610 5621 5631 5640 5648 5654 5660 5666 5670 5673 5676 5678 5679 5679 5679 5678 5676 5674 5671 5667 5664 5659 5655 5650